WXM80 ListenWXM80 Stop

You find our weather info also at:

UK Metoffice

WeatherCloud

Weather Underground

Northeastern Weather Network

AWEKAS

Citizen Weather Observer Program (CWOP)

HAMweather, WeatherForYou, PWS Weather


Weather Underground History page Text

Daily Summary for September 4, 2017 Units:  Metric    English   Both
« Previous Day
Next Day »
Daily Weekly Monthly Yearly Custom
  High: Low: Average:
Temperature: 29.4 °C 16.3 °C 21.7 °C
Dew Point: 18.4 °C 14.4 °C 16.4 °C
Humidity: 91 % 47 % 74 %
Wind Speed: 10.8 km/h 0 km/h 3.4 km/h
Wind Gust: 19.3 km/h - -
Wind:- - SW
Pressure: 1013.1 hPa 1008.7 hPa -
Precipitation: 0 mm    
Historical Graphs
 
 
Tabular Data for September 4, 2017
Time Temperature Dew Point Pressure Wind Wind Speed Wind Gust Humidity Rainfall Rate (Hourly)
00:00 18.3 °C 15.6 °C 1010.7 hPa WSW 0.8 km/h 11.1 km/h 84 % 0 mm
00:05 18.3 °C 15.6 °C 1010.7 hPa WSW 6.1 km/h 9.3 km/h 84 % 0 mm
00:10 18.3 °C 15.6 °C 1010.7 hPa WSW 7.1 km/h 11.1 km/h 84 % 0 mm
00:15 18.3 °C 15.6 °C 1010.7 hPa West 0.8 km/h 4.8 km/h 84 % 0 mm
00:21 18.3 °C 15.5 °C 1010.7 hPa WSW 1.6 km/h 9.7 km/h 84 % 0 mm
00:26 18.3 °C 15.5 °C 1010.7 hPa WSW 3.7 km/h 6.4 km/h 84 % 0 mm
00:31 18.2 °C 15.5 °C 1010.7 hPa WSW 3.2 km/h 6.4 km/h 84 % 0 mm
00:35 18.2 °C 15.4 °C 1010.7 hPa WSW 3.2 km/h 11.3 km/h 84 % 0 mm
00:41 18.2 °C 15.4 °C 1010.7 hPa West 1.6 km/h 6.4 km/h 84 % 0 mm
00:46 18.1 °C 15.4 °C 1010.7 hPa WSW 1.6 km/h 11.3 km/h 84 % 0 mm
00:51 18.1 °C 15.3 °C 1010.7 hPa WSW 4.8 km/h 9.7 km/h 84 % 0 mm
00:56 18 °C 15.3 °C 1011.1 hPa WSW 1.6 km/h 9.7 km/h 84 % 0 mm
01:01 18 °C 15.3 °C 1010.7 hPa WSW 5.3 km/h 7.4 km/h 84 % 0 mm
01:06 17.9 °C 15.2 °C 1011.1 hPa SW 3.2 km/h 19.3 km/h 84 % 0 mm
01:11 17.9 °C 15.2 °C 1011.1 hPa WSW 4.8 km/h 12.9 km/h 84 % 0 mm
01:16 17.9 °C 15.2 °C 1011.1 hPa WSW 4.8 km/h 19.3 km/h 84 % 0 mm
01:20 17.9 °C 15.2 °C 1011.1 hPa WSW 3.2 km/h 11.3 km/h 84 % 0 mm
01:25 17.8 °C 15.1 °C 1011.1 hPa SW 3.5 km/h 6.4 km/h 84 % 0 mm
01:30 17.8 °C 15.1 °C 1011.1 hPa WSW 5.1 km/h 8 km/h 84 % 0 mm
01:35 17.8 °C 15.1 °C 1011.1 hPa West 3.1 km/h 5.6 km/h 84 % 0 mm
01:40 17.8 °C 15.1 °C 1011.1 hPa WSW 5.8 km/h 9.7 km/h 84 % 0 mm
01:46 17.8 °C 15.1 °C 1011.1 hPa WSW 1.6 km/h 11.3 km/h 84 % 0 mm
01:51 17.8 °C 15.1 °C 1011.1 hPa WSW 3.2 km/h 11.3 km/h 84 % 0 mm
01:56 17.7 °C 15 °C 1011.1 hPa SW 2.3 km/h 5.6 km/h 84 % 0 mm
02:01 17.7 °C 15.2 °C 1010.7 hPa WSW 6.1 km/h 6.1 km/h 85 % 0 mm
02:06 17.7 °C 15.1 °C 1010.7 hPa SW 4.5 km/h 12.9 km/h 85 % 0 mm
02:11 17.7 °C 15.1 °C 1010.7 hPa West 5.6 km/h 11.3 km/h 85 % 0 mm
02:16 17.6 °C 15.1 °C 1011.1 hPa WSW 6.8 km/h 9.7 km/h 85 % 0 mm
02:21 17.6 °C 15.1 °C 1011.1 hPa West 5.6 km/h 13 km/h 85 % 0 mm
02:26 17.6 °C 15 °C 1011.1 hPa WSW 5.6 km/h 9.3 km/h 85 % 0 mm
02:31 17.6 °C 15 °C 1011.1 hPa SW 4.5 km/h 11.1 km/h 85 % 0 mm
02:36 17.6 °C 15 °C 1011.1 hPa SSW 5.1 km/h 11.1 km/h 85 % 0 mm
02:41 17.5 °C 14.9 °C 1010.7 hPa West 4.2 km/h 11.1 km/h 85 % 0 mm
02:46 17.5 °C 14.9 °C 1011.1 hPa WSW 3.7 km/h 9.7 km/h 85 % 0 mm
02:51 17.5 °C 14.9 °C 1011.1 hPa WSW 7.2 km/h 14.8 km/h 85 % 0 mm
02:56 17.4 °C 14.9 °C 1011.1 hPa SW 4.8 km/h 9.7 km/h 85 % 0 mm
03:01 17.4 °C 14.9 °C 1011.1 hPa WSW 6.6 km/h 11.1 km/h 85 % 0 mm
03:06 17.4 °C 14.9 °C 1011.1 hPa SW 4 km/h 9.3 km/h 85 % 0 mm
03:11 17.4 °C 15.1 °C 1011.1 hPa SW 5.5 km/h 9.3 km/h 86 % 0 mm
03:16 17.4 °C 15 °C 1011.1 hPa WSW 6.8 km/h 14.5 km/h 86 % 0 mm
03:21 17.4 °C 15 °C 1011.1 hPa WSW 6.1 km/h 13 km/h 86 % 0 mm
03:26 17.3 °C 14.9 °C 1011.1 hPa South 6.6 km/h 9.3 km/h 86 % 0 mm
03:31 17.3 °C 14.8 °C 1011.1 hPa WSW 1.8 km/h 5.6 km/h 85 % 0 mm
03:36 17.3 °C 14.7 °C 1011.1 hPa SW 8.2 km/h 14.5 km/h 85 % 0 mm
03:42 17.3 °C 14.7 °C 1011.1 hPa WSW 8.2 km/h 13 km/h 85 % 0 mm
03:47 17.2 °C 14.7 °C 1011.1 hPa SW 5.1 km/h 16.7 km/h 85 % 0 mm
03:52 17.2 °C 14.8 °C 1011.1 hPa WSW 3.9 km/h 5.6 km/h 86 % 0 mm
03:57 17.2 °C 14.8 °C 1011.1 hPa WSW 6.8 km/h 13 km/h 86 % 0 mm
04:02 17.2 °C 14.8 °C 1011.1 hPa West 2.7 km/h 16.7 km/h 86 % 0 mm
04:07 17.2 °C 14.8 °C 1011.1 hPa WSW 6.1 km/h 11.1 km/h 86 % 0 mm
04:12 17.2 °C 15.1 °C 1011.4 hPa SW 2.7 km/h 7.4 km/h 87 % 0 mm
04:17 17.2 °C 15 °C 1011.4 hPa WSW 7.7 km/h 13 km/h 87 % 0 mm
04:22 17.2 °C 15 °C 1011.4 hPa West 3.1 km/h 13 km/h 87 % 0 mm
04:27 17.2 °C 15.2 °C 1011.4 hPa SW 3.1 km/h 3.7 km/h 88 % 0 mm
04:32 17.2 °C 15.2 °C 1011.4 hPa WNW 3.5 km/h 11.1 km/h 88 % 0 mm
04:37 17.2 °C 15.2 °C 1011.4 hPa WNW 6.6 km/h 16.7 km/h 88 % 0 mm
04:42 17.2 °C 15.2 °C 1011.4 hPa WSW 1.3 km/h 11.1 km/h 88 % 0 mm
04:43 17.2 °C 15.2 °C 1011.4 hPa WSW 3.4 km/h 5.6 km/h 88 % 0 mm
04:48 17.2 °C 15.2 °C 1011.4 hPa SW 3.9 km/h 6.4 km/h 88 % 0 mm
04:53 17.2 °C 15 °C 1011.7 hPa WSW 4.2 km/h 7.4 km/h 87 % 0 mm
04:58 17.1 °C 14.9 °C 1011.7 hPa WSW 3.5 km/h 9.3 km/h 87 % 0 mm
05:03 17.1 °C 14.9 °C 1011.7 hPa SW 2.6 km/h 5.6 km/h 87 % 0 mm
05:08 17 °C 14.8 °C 1011.7 hPa SSE 2.6 km/h 5.6 km/h 87 % 0 mm
05:13 16.9 °C 14.8 °C 1011.7 hPa WSW 3.5 km/h 9.7 km/h 87 % 0 mm
05:16 16.9 °C 14.8 °C 1011.7 hPa SW 5.1 km/h 7.4 km/h 87 % 0 mm
05:21 16.8 °C 14.7 °C 1011.7 hPa WSW 4.2 km/h 8 km/h 87 % 0 mm
05:26 16.8 °C 14.6 °C 1011.7 hPa WSW 1.4 km/h 5.6 km/h 87 % 0 mm
05:31 16.8 °C 14.6 °C 1011.7 hPa WNW 3.5 km/h 7.4 km/h 87 % 0 mm
05:36 16.7 °C 14.6 °C 1012.1 hPa WSW 2.3 km/h 5.6 km/h 87 % 0 mm
05:41 16.7 °C 14.5 °C 1012.1 hPa SW 3.9 km/h 11.1 km/h 87 % 0 mm
05:46 16.6 °C 14.4 °C 1012.1 hPa SSW 3.5 km/h 9.3 km/h 87 % 0 mm
05:51 16.6 °C 14.4 °C 1012.1 hPa West 0.5 km/h 1.9 km/h 87 % 0 mm
05:56 16.6 °C 14.6 °C 1012.1 hPa West 2.4 km/h 8 km/h 88 % 0 mm
06:01 16.5 °C 14.5 °C 1012.1 hPa WSW 3.1 km/h 8 km/h 88 % 0 mm
06:06 16.4 °C 14.4 °C 1012.4 hPa WSW 1.1 km/h 3.7 km/h 88 % 0 mm
06:11 16.4 °C 14.4 °C 1012.1 hPa WSW 0.8 km/h 3.7 km/h 88 % 0 mm
06:16 16.4 °C 14.4 °C 1012.4 hPa WSW 6.6 km/h 9.3 km/h 88 % 0 mm
06:21 16.4 °C 14.6 °C 1012.4 hPa WSW 1.4 km/h 7.4 km/h 89 % 0 mm
06:26 16.4 °C 14.6 °C 1012.4 hPa WSW 3.9 km/h 7.4 km/h 89 % 0 mm
06:31 16.4 °C 14.6 °C 1012.4 hPa WSW 2.4 km/h 9.3 km/h 89 % 0 mm
06:36 16.4 °C 14.6 °C 1012.4 hPa West 0.6 km/h 1.9 km/h 89 % 0 mm
06:41 16.4 °C 14.6 °C 1012.4 hPa WSW 1.1 km/h 1.9 km/h 89 % 0 mm
06:46 16.4 °C 14.6 °C 1012.4 hPa WSW 0.8 km/h 4.8 km/h 89 % 0 mm
06:51 16.4 °C 14.6 °C 1012.8 hPa Calm     89 % 0 mm
06:56 16.4 °C 14.6 °C 1012.8 hPa Calm   1.9 km/h 89 % 0 mm
07:01 16.4 °C 14.6 °C 1012.8 hPa Calm     89 % 0 mm
07:06 16.4 °C 14.6 °C 1013.1 hPa Calm     89 % 0 mm
07:12 16.3 °C 14.5 °C 1013.1 hPa Calm     89 % 0 mm
07:17 16.3 °C 14.5 °C 1012.8 hPa Calm     89 % 0 mm
07:22 16.3 °C 14.5 °C 1012.8 hPa Calm     89 % 0 mm
07:27 16.3 °C 14.4 °C 1013.1 hPa Calm   1.9 km/h 89 % 0 mm
07:32 16.3 °C 14.6 °C 1013.1 hPa Calm   1.9 km/h 90 % 0 mm
07:37 16.3 °C 14.6 °C 1013.1 hPa SW 0.5 km/h 3.2 km/h 90 % 0 mm
07:42 16.3 °C 14.6 °C 1013.1 hPa SW 2.6 km/h 5.6 km/h 90 % 0 mm
07:47 16.3 °C 14.6 °C 1012.8 hPa SW 2.1 km/h 5.6 km/h 90 % 0 mm
07:52 16.3 °C 14.8 °C 1013.1 hPa West 4.7 km/h 7.4 km/h 91 % 0 mm
07:57 16.3 °C 14.8 °C 1013.1 hPa SW 2.1 km/h 4.8 km/h 91 % 0 mm
08:02 16.4 °C 14.9 °C 1013.1 hPa WSW 1.3 km/h 3.7 km/h 91 % 0 mm
08:07 16.5 °C 15 °C 1012.8 hPa SW 2.1 km/h 5.6 km/h 91 % 0 mm
08:12 16.6 °C 15.1 °C 1013.1 hPa SW 3.2 km/h 14.5 km/h 91 % 0 mm
08:17 16.7 °C 15.2 °C 1013.1 hPa WSW 1.8 km/h 3.7 km/h 91 % 0 mm
08:22 16.8 °C 15.2 °C 1013.1 hPa WSW 5.6 km/h 9.7 km/h 90 % 0 mm
08:28 16.9 °C 15.3 °C 1012.8 hPa West 3.1 km/h 5.6 km/h 90 % 0 mm
08:32 17.1 °C 15.4 °C 1012.8 hPa WNW 3.4 km/h 7.4 km/h 90 % 0 mm
08:38 17.2 °C 15.4 °C 1012.8 hPa WSW 5.8 km/h 7.4 km/h 89 % 0 mm
08:43 17.4 °C 15.6 °C 1012.8 hPa WSW 4.3 km/h 9.7 km/h 89 % 0 mm
08:48 17.6 °C 15.6 °C 1013.1 hPa WSW 6.3 km/h 9.3 km/h 88 % 0 mm
08:53 17.8 °C 15.8 °C 1012.8 hPa West 4.2 km/h 7.4 km/h 88 % 0 mm
08:58 17.9 °C 15.7 °C 1012.8 hPa WSW 1.1 km/h 5.6 km/h 87 % 0 mm
09:03 18.1 °C 15.8 °C 1013.1 hPa SSW 3.4 km/h 9.3 km/h 87 % 0 mm
09:08 18.2 °C 15.8 °C 1012.8 hPa West 6.9 km/h 11.1 km/h 86 % 0 mm
09:13 18.3 °C 15.8 °C 1012.8 hPa WSW 6.9 km/h 11.1 km/h 85 % 0 mm
09:18 18.5 °C 15.9 °C 1013.1 hPa SW 3.7 km/h 5.6 km/h 85 % 0 mm
09:23 18.7 °C 16.1 °C 1012.8 hPa West 1.1 km/h 3.7 km/h 85 % 0 mm
09:28 18.8 °C 16.1 °C 1012.8 hPa WSW 4 km/h 7.4 km/h 84 % 0 mm
09:33 19 °C 16.1 °C 1012.8 hPa SSW 4.3 km/h 11.1 km/h 83 % 0 mm
09:38 19.2 °C 16.3 °C 1013.1 hPa WSW 4.8 km/h 5.6 km/h 83 % 0 mm
09:44 19.6 °C 16.4 °C 1013.1 hPa SSW 5.8 km/h 7.4 km/h 82 % 0 mm
09:49 19.9 °C 16.6 °C 1012.8 hPa WSW 3.4 km/h 7.4 km/h 81 % 0 mm
09:54 20.3 °C 16.5 °C 1012.8 hPa WSW 5.8 km/h 11.1 km/h 79 % 0 mm
09:59 20.7 °C 16.6 °C 1013.1 hPa SW 2.4 km/h 9.3 km/h 77 % 0 mm
10:04 21.1 °C 16.9 °C 1013.1 hPa SSW 4.5 km/h 9.7 km/h 77 % 0 mm
10:09 21.3 °C 16.7 °C 1013.1 hPa West 5 km/h 11.1 km/h 75 % 0 mm
10:14 21.6 °C 16.9 °C 1012.8 hPa WNW 2.9 km/h 5.6 km/h 75 % 0 mm
10:19 21.7 °C 16.6 °C 1012.8 hPa West 5.3 km/h 7.4 km/h 73 % 0 mm
10:24 21.8 °C 16.3 °C 1012.8 hPa WSW 4.5 km/h 11.1 km/h 71 % 0 mm
10:29 21.8 °C 16.6 °C 1012.8 hPa WNW 0.8 km/h 3.7 km/h 72 % 0 mm
10:34 21.9 °C 16.8 °C 1013.1 hPa WSW 2.7 km/h 7.4 km/h 73 % 0 mm
10:39 21.9 °C 16.9 °C 1013.1 hPa West 6 km/h 9.3 km/h 73 % 0 mm
10:44 21.9 °C 16.4 °C 1013.1 hPa WNW 6.3 km/h 11.1 km/h 71 % 0 mm
10:49 22.1 °C 16.6 °C 1013.1 hPa WSW 4.8 km/h 18.5 km/h 71 % 0 mm
10:54 22.3 °C 16.8 °C 1013.1 hPa SW 6.4 km/h 13 km/h 71 % 0 mm
10:59 22.6 °C 17.1 °C 1013.1 hPa West 4.2 km/h 9.7 km/h 71 % 0 mm
11:04 22.8 °C 17.3 °C 1013.1 hPa West 4.5 km/h 11.1 km/h 71 % 0 mm
11:09 23.3 °C 17.9 °C 1013.1 hPa WSW 3.7 km/h 8 km/h 72 % 0 mm
11:14 23.7 °C 17.4 °C 1013.1 hPa WSW 3.9 km/h 5.6 km/h 68 % 0 mm
11:19 24.2 °C 17.9 °C 1012.8 hPa WSW 5.6 km/h 7.4 km/h 68 % 0 mm
11:24 24.6 °C 17.1 °C 1012.8 hPa WSW 5.3 km/h 11.1 km/h 63 % 0 mm
11:29 24.9 °C 17.7 °C 1012.8 hPa SW 6.1 km/h 12.9 km/h 64 % 0 mm
11:34 25.3 °C 18.3 °C 1012.8 hPa WNW 1.4 km/h 5.6 km/h 65 % 0 mm
11:39 25.7 °C 17.1 °C 1012.8 hPa WSW 7.6 km/h 16.7 km/h 59 % 0 mm
11:44 26.1 °C 17.4 °C 1012.8 hPa SW 4 km/h 11.1 km/h 59 % 0 mm
11:49 26.3 °C 17.4 °C 1012.8 hPa WNW 5.5 km/h 9.3 km/h 58 % 0 mm
11:54 26.6 °C 17.7 °C 1012.8 hPa West 6 km/h 9.3 km/h 58 % 0 mm
11:59 26.9 °C 18.2 °C 1012.4 hPa West 1.3 km/h 7.4 km/h 59 % 0 mm
12:04 27.2 °C 17.7 °C 1012.8 hPa WNW 6.9 km/h 6.9 km/h 56 % 0 mm
12:09 27.4 °C 17.3 °C 1012.8 hPa NW 8.7 km/h 13 km/h 54 % 0 mm
12:14 27.6 °C 17.1 °C 1012.4 hPa SW 2.4 km/h 7.4 km/h 53 % 0 mm
12:19 27.7 °C 17.3 °C 1012.8 hPa WSW 8.7 km/h 16.7 km/h 53 % 0 mm
12:24 27.9 °C 17.2 °C 1012.4 hPa WNW 4 km/h 14.8 km/h 52 % 0 mm
12:25 28 °C 16.9 °C 1012.4 hPa WSW 2.7 km/h 8 km/h 51 % 0 mm
12:30 28.1 °C 16.4 °C 1012.4 hPa NW 6.4 km/h 11.1 km/h 49 % 0 mm
12:35 28.2 °C 16.8 °C 1012.4 hPa WSW 5.8 km/h 11.1 km/h 50 % 0 mm
12:40 28.4 °C 17.9 °C 1012.4 hPa WSW 1 km/h 3.7 km/h 53 % 0 mm
12:45 28.5 °C 17.1 °C 1012.4 hPa West 7.4 km/h 13 km/h 50 % 0 mm
12:50 28.7 °C 16.9 °C 1012.4 hPa West 4.5 km/h 9.3 km/h 49 % 0 mm
12:55 28.9 °C 18.3 °C 1012.1 hPa West 4.5 km/h 5.6 km/h 53 % 0 mm
13:00 28.9 °C 16.8 °C 1012.1 hPa WSW 7.2 km/h 11.1 km/h 48 % 0 mm
13:05 29 °C 17.2 °C 1012.1 hPa South 5.5 km/h 9.3 km/h 49 % 0 mm
13:10 29.1 °C 17.3 °C 1012.1 hPa NW 0.5 km/h 3.7 km/h 49 % 0 mm
13:15 29.2 °C 17.3 °C 1012.1 hPa SE 5 km/h 9.3 km/h 49 % 0 mm
13:20 29.3 °C 18.1 °C 1012.1 hPa SSW 3.7 km/h 9.3 km/h 51 % 0 mm
13:25 29.3 °C 17.5 °C 1011.7 hPa WSW 3.9 km/h 5.6 km/h 49 % 0 mm
13:30 29.4 °C 17.6 °C 1012.1 hPa West 10.8 km/h 18.5 km/h 49 % 0 mm
13:35 29.4 °C 16.9 °C 1011.7 hPa SW 4 km/h 8 km/h 47 % 0 mm
13:40 29.4 °C 17.2 °C 1011.7 hPa West 6.6 km/h 16.1 km/h 48 % 0 mm
13:45 29.3 °C 17.2 °C 1011.7 hPa SSW 6.1 km/h 14.8 km/h 48 % 0 mm
13:50 29.3 °C 16.8 °C 1011.7 hPa West 6.6 km/h 13 km/h 47 % 0 mm
13:55 29.2 °C 17.4 °C 1011.7 hPa SW 7.2 km/h 9.3 km/h 49 % 0 mm
14:00 29.2 °C 17.7 °C 1011.7 hPa SSW 0.2 km/h 1.9 km/h 50 % 0 mm
14:06 29.2 °C 17.1 °C 1011.4 hPa West 4.7 km/h 11.1 km/h 48 % 0 mm
14:11 29.2 °C 17.1 °C 1011.7 hPa SW 2.7 km/h 8 km/h 48 % 0 mm
14:16 29.2 °C 17.1 °C 1011.7 hPa SSW 10.8 km/h 11.3 km/h 48 % 0 mm
14:21 29.1 °C 17.3 °C 1011.4 hPa SW 1.6 km/h 11.1 km/h 49 % 0 mm
14:26 29.1 °C 17.3 °C 1011.4 hPa SW 4.8 km/h 11.3 km/h 49 % 0 mm
14:31 29 °C 17.6 °C 1011.4 hPa SW 4.8 km/h 12.9 km/h 50 % 0 mm
14:36 29 °C 16.8 °C 1011.4 hPa Calm   6.4 km/h 48 % 0 mm
14:41 28.8 °C 17.1 °C 1011.1 hPa SSW 4.8 km/h 14.5 km/h 49 % 0 mm
14:46 28.9 °C 17.7 °C 1011.1 hPa SW 3.2 km/h 9.7 km/h 51 % 0 mm
14:51 28.9 °C 17.2 °C 1011.1 hPa WSW 3.2 km/h 12.9 km/h 49 % 0 mm
14:56 29 °C 17.5 °C 1011.1 hPa WSW 3.2 km/h 9.7 km/h 50 % 0 mm
15:01 29.1 °C 16.9 °C 1011.1 hPa SW 2.9 km/h 14.8 km/h 48 % 0 mm
15:06 29.1 °C 16.9 °C 1011.1 hPa SW 6 km/h 16.7 km/h 48 % 0 mm
15:11 29.1 °C 17.9 °C 1010.7 hPa SSW 1 km/h 5.6 km/h 51 % 0 mm
15:14 29 °C 17.5 °C 1010.7 hPa SSW 3.1 km/h 9.3 km/h 50 % 0 mm
15:19 28.8 °C 16.7 °C 1010.7 hPa South 6 km/h 13 km/h 48 % 0 mm
15:24 28.5 °C 17.4 °C 1010.7 hPa SSE 2.3 km/h 7.4 km/h 51 % 0 mm
15:29 28.3 °C 17.2 °C 1010.7 hPa SSW 3.9 km/h 9.3 km/h 51 % 0 mm
15:33 28.3 °C 17.6 °C 1010.7 hPa SSE 5.1 km/h 14.8 km/h 52 % 0 mm
15:38 28.3 °C 17.5 °C 1010.7 hPa SW 1.6 km/h 5.6 km/h 52 % 0 mm
15:43 28.1 °C 17.3 °C 1010.7 hPa SE 2.6 km/h 5.6 km/h 52 % 0 mm
15:48 28 °C 17.2 °C 1010.4 hPa SSW 9 km/h 11.1 km/h 52 % 0 mm
15:53 28 °C 17.2 °C 1010.4 hPa SSW 1 km/h 6.4 km/h 52 % 0 mm
15:58 27.9 °C 16.9 °C 1010.4 hPa South 7.1 km/h 9.7 km/h 51 % 0 mm
16:03 27.8 °C 17.1 °C 1010.4 hPa SW 10 km/h 16.7 km/h 52 % 0 mm
16:08 27.8 °C 17 °C 1010.4 hPa SSW 2.1 km/h 9.3 km/h 52 % 0 mm
16:13 27.7 °C 17.3 °C 1010.4 hPa WSW 2.7 km/h 9.3 km/h 53 % 0 mm
16:18 27.7 °C 17.2 °C 1010.4 hPa South 3.2 km/h 3.7 km/h 53 % 0 mm
16:23 27.4 °C 17.3 °C 1010.4 hPa SW 2.3 km/h 6.4 km/h 54 % 0 mm
16:28 27.4 °C 16.9 °C 1010 hPa SE 3.2 km/h 7.4 km/h 53 % 0 mm
16:33 27.2 °C 16.8 °C 1010.4 hPa SW 4.8 km/h 13 km/h 53 % 0 mm
16:38 27.1 °C 17.5 °C 1010 hPa SE 4 km/h 9.3 km/h 56 % 0 mm
16:44 26.7 °C 16.7 °C 1010 hPa South 6.1 km/h 9.7 km/h 54 % 0 mm
16:49 26.5 °C 16.4 °C 1010 hPa SSE 4.2 km/h 11.1 km/h 54 % 0 mm
16:54 26.3 °C 16.8 °C 1010 hPa SSW 2.1 km/h 11.1 km/h 56 % 0 mm
16:59 26.3 °C 16.5 °C 1010 hPa SW 0.6 km/h 3.7 km/h 55 % 0 mm
17:04 26.2 °C 16.7 °C 1010 hPa South 2.7 km/h 14.8 km/h 56 % 0 mm
17:09 26.1 °C 16.7 °C 1010 hPa SE 1.9 km/h 7.4 km/h 56 % 0 mm
17:14 26.1 °C 16.6 °C 1009.7 hPa South 6.9 km/h 13 km/h 56 % 0 mm
17:19 25.9 °C 16.4 °C 1010 hPa South 5.1 km/h 7.4 km/h 56 % 0 mm
17:24 25.8 °C 16.6 °C 1010 hPa South 2.4 km/h 5.6 km/h 57 % 0 mm
17:29 25.7 °C 16.8 °C 1009.7 hPa SSE 5.8 km/h 16.7 km/h 58 % 0 mm
17:34 25.5 °C 16.9 °C 1009.7 hPa SE 1.6 km/h 4.8 km/h 59 % 0 mm
17:39 25.3 °C 16.7 °C 1009.7 hPa South 1.1 km/h 5.6 km/h 59 % 0 mm
17:44 25.2 °C 16.6 °C 1009.7 hPa SSE 1.6 km/h 8 km/h 59 % 0 mm
17:49 25.1 °C 16.8 °C 1009.7 hPa South 5.5 km/h 8 km/h 60 % 0 mm
17:54 25 °C 16.9 °C 1009.7 hPa South 1.3 km/h 3.7 km/h 61 % 0 mm
17:59 24.8 °C 16.8 °C 1009.4 hPa South 4.8 km/h 9.3 km/h 61 % 0 mm
18:04 24.7 °C 16.7 °C 1009.4 hPa SE 4.2 km/h 7.4 km/h 61 % 0 mm
18:09 24.6 °C 16.8 °C 1009.4 hPa SSW 2.6 km/h 5.6 km/h 62 % 0 mm
18:14 24.5 °C 17 °C 1009.4 hPa SSW 1.6 km/h 5.6 km/h 63 % 0 mm
18:19 24.4 °C 17.1 °C 1009.4 hPa SE 1.4 km/h 5.6 km/h 64 % 0 mm
18:24 24.2 °C 17 °C 1009.4 hPa Calm   1.9 km/h 64 % 0 mm
18:29 24.2 °C 17.2 °C 1009.7 hPa SSE 3.5 km/h 8 km/h 65 % 0 mm
18:34 24.1 °C 17.3 °C 1009.7 hPa SSE 1.8 km/h 4.8 km/h 66 % 0 mm
18:39 23.9 °C 17.4 °C 1009.4 hPa SSE 3.7 km/h 11.1 km/h 67 % 0 mm
18:44 23.8 °C 17.6 °C 1009.4 hPa South 3.2 km/h 7.4 km/h 68 % 0 mm
18:49 23.7 °C 17.7 °C 1009.4 hPa SSE 2.6 km/h 7.4 km/h 69 % 0 mm
18:54 23.6 °C 17.8 °C 1009.4 hPa SSW 2.7 km/h 5.6 km/h 70 % 0 mm
18:59 23.5 °C 17.7 °C 1009.4 hPa SW 4.5 km/h 11.3 km/h 70 % 0 mm
19:04 23.4 °C 17.8 °C 1009.4 hPa SSW 1.6 km/h 5.6 km/h 71 % 0 mm
19:09 23.3 °C 17.9 °C 1009.4 hPa South 3.5 km/h 5.6 km/h 72 % 0 mm
19:14 23.2 °C 17.8 °C 1009.4 hPa SSW 1.3 km/h 5.6 km/h 72 % 0 mm
19:19 23.1 °C 17.9 °C 1009.4 hPa SW 3.1 km/h 7.4 km/h 73 % 0 mm
19:24 22.9 °C 18 °C 1009.4 hPa SW 1 km/h 3.7 km/h 74 % 0 mm
19:29 22.8 °C 17.9 °C 1009.4 hPa SSW 3.2 km/h 5.6 km/h 74 % 0 mm
19:34 22.7 °C 18 °C 1009.4 hPa SSW 2.7 km/h 5.6 km/h 75 % 0 mm
19:39 22.6 °C 18.2 °C 1009.4 hPa SSW 2.6 km/h 4.8 km/h 76 % 0 mm
19:44 22.5 °C 18.3 °C 1009.4 hPa South 2.1 km/h 5.6 km/h 77 % 0 mm
19:49 22.4 °C 18.2 °C 1009.7 hPa SSE 1.9 km/h 5.6 km/h 77 % 0 mm
19:54 22.3 °C 18.3 °C 1009.7 hPa South 1.1 km/h 9.3 km/h 78 % 0 mm
19:59 22.2 °C 18.3 °C 1009.4 hPa South 0.2 km/h 1.9 km/h 79 % 0 mm
20:04 22.1 °C 18.3 °C 1009.4 hPa South 1.3 km/h 5.6 km/h 79 % 0 mm
20:09 22 °C 18.2 °C 1009.4 hPa SSE 0.5 km/h 1.9 km/h 79 % 0 mm
20:15 21.9 °C 18.3 °C 1009.4 hPa SSE 0.8 km/h 1.9 km/h 80 % 0 mm
20:20 21.8 °C 18.2 °C 1009.4 hPa SSE 1.1 km/h 3.7 km/h 80 % 0 mm
20:25 21.8 °C 18.4 °C 1009.4 hPa SSW 1.3 km/h 6.4 km/h 81 % 0 mm
20:30 21.7 °C 18.3 °C 1009.7 hPa SSW 1.3 km/h 5.6 km/h 81 % 0 mm
20:35 21.7 °C 18.1 °C 1009.4 hPa SW 1.3 km/h 3.2 km/h 80 % 0 mm
20:40 21.6 °C 18.2 °C 1009.4 hPa South 2.4 km/h 5.6 km/h 81 % 0 mm
20:45 21.6 °C 18.2 °C 1009.7 hPa SSW 2.9 km/h 11.1 km/h 81 % 0 mm
20:50 21.6 °C 17.9 °C 1009.4 hPa SSW 1.4 km/h 3.7 km/h 80 % 0 mm
20:55 21.5 °C 18.1 °C 1009.4 hPa SSW 0.6 km/h 5.6 km/h 81 % 0 mm
21:00 21.4 °C 18.1 °C 1009.7 hPa Calm   3.7 km/h 81 % 0 mm
21:05 21.4 °C 18 °C 1009.7 hPa SSW 0.5 km/h 5.6 km/h 81 % 0 mm
21:10 21.4 °C 18 °C 1009.4 hPa SSE 0.6 km/h 3.7 km/h 81 % 0 mm
21:15 21.3 °C 17.9 °C 1009.4 hPa SE 0.8 km/h 5.6 km/h 81 % 0 mm
21:20 21.3 °C 17.9 °C 1009.4 hPa SE 0.6 km/h 5.6 km/h 81 % 0 mm
21:25 21.3 °C 17.9 °C 1009.4 hPa SSE 5.3 km/h 7.4 km/h 81 % 0 mm
21:30 21.3 °C 17.7 °C 1009.4 hPa SSE 0.2 km/h 1.9 km/h 80 % 0 mm
21:35 21.3 °C 17.7 °C 1009.4 hPa WSW 3.9 km/h 7.4 km/h 80 % 0 mm
21:40 21.3 °C 17.7 °C 1009.4 hPa SSW 2.1 km/h 5.6 km/h 80 % 0 mm
21:45 21.2 °C 17.6 °C 1009.4 hPa South 1.8 km/h 5.6 km/h 80 % 0 mm
21:50 21.2 °C 17.6 °C 1009.4 hPa SW 2.3 km/h 6.4 km/h 80 % 0 mm
21:55 21.2 °C 17.8 °C 1009.4 hPa South 0.5 km/h 4.8 km/h 81 % 0 mm
22:00 21.2 °C 17.8 °C 1009.4 hPa SSW 1.9 km/h 3.7 km/h 81 % 0 mm
22:05 21.1 °C 17.7 °C 1009.4 hPa SW 1.6 km/h 5.6 km/h 81 % 0 mm
22:10 21.1 °C 17.7 °C 1009.4 hPa South 1.1 km/h 3.7 km/h 81 % 0 mm
22:15 21.1 °C 17.9 °C 1009 hPa SSW 1.4 km/h 5.6 km/h 82 % 0 mm
22:20 21.1 °C 17.9 °C 1009 hPa SSE 1.6 km/h 3.7 km/h 82 % 0 mm
22:25 21.1 °C 17.9 °C 1009.4 hPa South 1 km/h 5.6 km/h 82 % 0 mm
22:31 21 °C 18 °C 1009.4 hPa South 1.6 km/h 6.4 km/h 83 % 0 mm
22:36 21 °C 18 °C 1009 hPa South 1.6 km/h 4.8 km/h 83 % 0 mm
22:41 20.9 °C 17.9 °C 1009 hPa South 1.6 km/h 6.4 km/h 83 % 0 mm
22:46 20.9 °C 17.9 °C 1009 hPa Calm   6.4 km/h 83 % 0 mm
22:51 20.9 °C 18.1 °C 1009.4 hPa Calm   6.4 km/h 84 % 0 mm
22:56 20.9 °C 18.1 °C 1009 hPa South 1.6 km/h 4.8 km/h 84 % 0 mm
23:01 20.9 °C 18.1 °C 1009 hPa SW 1.8 km/h 3.7 km/h 84 % 0 mm
23:06 20.8 °C 18.1 °C 1009 hPa SSW 1.8 km/h 3.7 km/h 84 % 0 mm
23:11 20.8 °C 18.2 °C 1009 hPa SSE 1.1 km/h 1.9 km/h 85 % 0 mm
23:16 20.8 °C 18.2 °C 1009 hPa SW 1.8 km/h 5.6 km/h 85 % 0 mm
23:21 20.7 °C 18.1 °C 1009 hPa SSW 0.5 km/h 3.7 km/h 85 % 0 mm
23:22 20.7 °C 18.1 °C 1009 hPa SSW 1.1 km/h 4.8 km/h 85 % 0 mm
23:24 20.7 °C 18.1 °C 1009 hPa SSW 3.4 km/h 7.4 km/h 85 % 0 mm
23:29 20.7 °C 18.2 °C 1009 hPa SSW 1.4 km/h 6.4 km/h 86 % 0 mm
23:34 20.7 °C 18.2 °C 1009 hPa South 1.8 km/h 5.6 km/h 86 % 0 mm
23:39 20.7 °C 18.2 °C 1008.7 hPa SSE 2.7 km/h 7.4 km/h 86 % 0 mm
23:44 20.6 °C 18.2 °C 1009 hPa South 0.8 km/h 3.7 km/h 86 % 0 mm
23:49 20.6 °C 18.2 °C 1009 hPa SSW 0.3 km/h 5.6 km/h 86 % 0 mm
23:54 20.6 °C 18.2 °C 1009 hPa South 0.2 km/h 5.6 km/h 86 % 0 mm
Crab Meadow Weather
Compliments of Weather Underground - 3 mb

Script developed by  Jim McMurry - jmcmurry@mwt.net Adapted for the template by  Wim van der Kuil - Leuven-Template.eu

Recycling: To produce each week's Sunday newspapers, 500,000 trees must be cut down.